Location: Cactus School
(34.5700°N, 118.0931°W)
Time: 15:30:34
(UTC-07:00)

CUTE 1.7 + AOD 2 - Visible Passes

Search period start: 27 May 2024 00:00
Search period end: 06 June 2024 00:00
Orbit: 569 x 586 km, 97.8° (Epoch: 26 May)

Date Brightness Start Highest point End Pass type
(mag) Time Alt. Az. Time Alt. Az. Time Alt. Az.
27 May ? 03:47:00 10° NE 03:50:37 30° E 03:53:51 12° SSE visible
28 May ? 03:51:05 10° NNE 03:54:49 33° E 03:58:07 13° SSE visible
29 May ? 03:55:10 10° NNE 03:59:01 38° E 04:02:22 13° SSE visible
30 May ? 03:59:16 10° NNE 04:03:11 43° E 04:06:36 13° SSE visible
31 May ? 04:03:21 10° NNE 04:07:21 48° E 04:10:50 13° S visible
01 Jun ? 04:07:27 10° NNE 04:11:30 55° E 04:15:03 13° S visible
02 Jun ? 04:11:33 10° NNE 04:15:39 63° E 04:19:14 13° S visible
03 Jun ? 04:15:39 10° NNE 04:19:46 71° ESE 04:23:26 13° S visible
04 Jun ? 04:19:45 10° NNE 04:23:53 81° ESE 04:27:37 13° S visible
05 Jun ? 04:23:51 10° NNE 04:28:00 90° SW 04:31:47 12° SSW visible
